Content
SEND FEEDBACK

Daily
Averages
Monthly
Summary
Canada

VANCOUVER, BRITISH COLUMBIA


Home > North America > Canada > British Columbia
Elevation: 7 feet     Latitude: 49 11N     Longitude: 123 10W

WEATHER
 
SELECT A DAY
Number of Records: 249,842;   Date Range: 5/15/97 - 9/17/14
 
SHARE

PRINT THIS DATA

[ ← Previous Day ]
WEATHER ALMANAC - MARCH 17, 2013
[ Next Day → ]
[ °C ]   °F
Weather ElementAverageHighLow
Temperature41.8 °F48.2 °F (2:55 pm)35.6 °F (3:35 am)
Dewpoint31.2 °F33.8 °F (12:35 am)24.8 °F (2:15 pm)
Humidity67.5 %87 % (12:35 am)43 % (2:15 pm)
Barometer30.08 in30.13 in (11:15 am)29.92 in (12:35 am)
Wind Speed5.4 mph12.7 mph (8:15 pm)
Wind Gust17.3 mph (3:15 pm)
Weather ElementAverage
Visibility10 mi
Wind DirectionS (176 °)

Weather ElementTotal
Precipitation---
Heating Degree Days23.1 (Base 65)
Averaged from 70 records on March 17, 2013
WEATHER CONDITIONS BREAKOUT
WIND DIRECTION BREAKOUT
WEATHER BY HOUR - MARCH 17, 2013
[ °C ]   °F
Local TimeTemperatureDewpointHumidityBarometerVisibilityWind DirectionWind SpeedGust SpeedPrecipitationEventsConditions
12:35 AM37.4 °F33.8 °F87 %29.92 in10.0 miSSW (200°)5.8 mphClear
12:55 AM39.2 °F32.0 °F75 %29.93 in10.0 miSW (220°)5.8 mphClear
1:15 AM39.2 °F32.0 °F75 %29.94 in10.0 miSW (230°)4.6 mphPartly Cloudy
1:35 AM41.0 °F32.0 °F70 %29.94 in10.0 miWSW (250°)3.5 mphPartly Cloudy
1:55 AM41.0 °F32.0 °F70 %29.95 in10.0 miWSW (240°)6.9 mphClear
2:15 AM41.0 °F32.0 °F70 %29.96 in10.0 miCalmClear
2:35 AM39.2 °F32.0 °F75 %29.97 in10.0 miSW (220°)3.5 mphClear
3:15 AM37.4 °F32.0 °F81 %29.98 in10.0 miCalmClear
3:35 AM35.6 °F32.0 °F87 %29.99 in10.0 miCalmClear
3:55 AM35.6 °F32.0 °F87 %29.99 in10.0 miSSW (200°)5.8 mphClear
4:15 AM35.6 °F32.0 °F87 %30.00 in10.0 miSSW (200°)5.8 mphClear
4:35 AM37.4 °F32.0 °F81 %30.00 in10.0 miCalmClear
4:55 AM37.4 °F32.0 °F81 %30.01 in10.0 miCalmClear
5:15 AM37.4 °F32.0 °F81 %30.02 in10.0 miSW (230°)4.6 mphPartly Cloudy
5:35 AM39.2 °F32.0 °F75 %30.03 in10.0 miCalmClear
5:55 AM37.4 °F32.0 °F81 %30.04 in10.0 miSSW (210°)4.6 mphClear
6:15 AM37.4 °F32.0 °F81 %30.04 in10.0 miCalmScattered Clouds
6:35 AM37.4 °F32.0 °F81 %30.05 in10.0 miCalmScattered Clouds
6:55 AM35.6 °F32.0 °F87 %30.05 in10.0 miCalmPartly Cloudy
7:15 AM35.6 °F32.0 °F87 %30.06 in10.0 miCalmClear
7:35 AM35.6 °F32.0 °F87 %30.07 in10.0 miSSW (200°)5.8 mphClear
7:55 AM35.6 °F32.0 °F87 %30.07 in10.0 miSSW (200°)6.9 mphClear
8:15 AM37.4 °F32.0 °F81 %30.08 in10.0 miCalmClear
8:35 AM37.4 °F32.0 °F81 %30.09 in10.0 miCalmClear
8:55 AM37.4 °F33.8 °F87 %30.09 in10.0 miCalmClear
9:15 AM41.0 °F32.0 °F70 %30.10 in10.0 miCalmClear
9:35 AM42.8 °F32.0 °F66 %30.11 in10.0 miWNW (290°)3.5 mphClear
9:55 AM44.6 °F32.0 °F61 %30.11 in10.0 miWNW (290°)4.6 mphClear
10:15 AM42.8 °F32.0 °F66 %30.12 in10.0 miNW (320°)6.9 mphClear
10:35 AM44.6 °F32.0 °F61 %30.11 in10.0 miWSW (240°)5.8 mphClear
10:55 AM44.6 °F32.0 °F61 %30.12 in10.0 miSW (220°)8.1 mphClear
11:15 AM44.6 °F30.2 °F57 %30.13 in10.0 miWest (260°)5.8 mphClear
11:35 AM44.6 °F28.4 °F53 %30.13 in10.0 miWest (260°)5.8 mphClear
11:55 AM44.6 °F28.4 °F53 %30.13 in10.0 miWSW (240°)6.9 mphClear
12:15 PM44.6 °F28.4 °F53 %30.13 in10.0 miSSW (210°)5.8 mphPartly Cloudy
12:35 PM44.6 °F26.6 °F49 %30.13 in10.0 miWest (260°)8.1 mphClear
12:55 PM46.4 °F28.4 °F50 %30.13 in10.0 miWest (270°)4.6 mphClear
1:15 PM46.4 °F28.4 °F50 %30.13 in10.0 miWest (260°)4.6 mphClear
1:35 PM46.4 °F26.6 °F46 %30.13 in10.0 miWNW (290°)8.1 mphClear
1:55 PM46.4 °F26.6 °F46 %30.13 in10.0 miWest (260°)5.8 mphClear
2:15 PM46.4 °F24.8 °F43 %30.12 in10.0 miCalmClear
2:35 PM46.4 °F28.4 °F50 %30.12 in10.0 miSSW (200°)8.1 mphPartly Cloudy
2:55 PM48.2 °F32.0 °F54 %30.12 in10.0 miSouth (180°)4.6 mphClear
3:15 PM46.4 °F32.0 °F57 %30.11 in10.0 miSSW (210°)11.5 mph17.3 mphPartly Cloudy
3:35 PM46.4 °F32.0 °F57 %30.11 in10.0 miSouth (190°)9.2 mphClear
3:55 PM46.4 °F32.0 °F57 %30.11 in10.0 miSSW (210°)4.6 mphScattered Clouds
4:15 PM46.4 °F30.2 °F53 %30.11 in10.0 miSouth (190°)8.1 mph17.3 mphMostly Cloudy
4:35 PM46.4 °F32.0 °F57 %30.12 in10.0 miNW (310°)5.8 mphScattered Clouds
4:55 PM46.4 °F32.0 °F57 %30.12 in10.0 miCalmScattered Clouds
5:15 PM46.4 °F32.0 °F57 %30.12 in10.0 miWest (260°)6.9 mphScattered Clouds
5:35 PM46.4 °F32.0 °F57 %30.12 in10.0 miWest (270°)4.6 mphScattered Clouds
5:55 PM46.4 °F28.4 °F50 %30.12 in10.0 miWSW (250°)6.9 mphPartly Cloudy
6:15 PM46.4 °F28.4 °F50 %30.11 in10.0 miSW (230°)6.9 mphClear
6:35 PM44.6 °F28.4 °F53 %30.11 in10.0 miWSW (250°)6.9 mphScattered Clouds
6:55 PM44.6 °F28.4 °F53 %30.10 in10.0 miSSW (210°)8.1 mphMostly Cloudy
7:15 PM44.6 °F32.0 °F61 %30.10 in10.0 miSSW (200°)8.1 mphOvercast
7:35 PM42.8 °F32.0 °F66 %30.10 in10.0 miSSW (210°)8.1 mphScattered Clouds
7:55 PM42.8 °F32.0 °F66 %30.10 in10.0 miSSW (210°)8.1 mphScattered Clouds
8:15 PM41.0 °F32.0 °F70 %30.10 in10.0 miSSW (210°)12.7 mphMostly Cloudy
8:35 PM41.0 °F32.0 °F70 %30.10 in10.0 miSSW (210°)10.4 mphScattered Clouds
8:55 PM41.0 °F32.0 °F70 %30.11 in10.0 miSSW (200°)10.4 mphClear
9:15 PM41.0 °F32.0 °F70 %30.11 in10.0 miSSW (200°)9.2 mphClear
9:35 PM41.0 °F32.0 °F70 %30.11 in10.0 miSSW (210°)8.1 mphClear
9:55 PM41.0 °F32.0 °F70 %30.11 in10.0 miSSW (210°)9.2 mphClear
10:15 PM41.0 °F32.0 °F70 %30.11 in10.0 miSSW (210°)8.1 mphPartly Cloudy
10:35 PM41.0 °F32.0 °F70 %30.12 in10.0 miSW (220°)6.9 mphPartly Cloudy
10:55 PM39.2 °F32.0 °F75 %30.11 in10.0 miSSW (210°)11.5 mphClear
11:15 PM41.0 °F33.8 °F76 %30.11 in10.0 miSSW (200°)10.4 mphClear
11:35 PM41.0 °F33.8 °F76 %30.11 in10.0 miSouth (190°)6.9 mphClear
11:55 PM41.0 °F33.8 °F76 %30.10 in10.0 miSSW (200°)8.1 mphPartly Cloudy
Hourly data recorded from CZBB, located miles away from Vancouver, British Columbia







STORIES FROM OUR PARTNERS